BEIDOU-3 M21

Last updated on Jan. 18, 2020, 4:39 a.m. UTC

1 44793U 19078A   20017.09631203 -.00000070  00000-0  10000-3 0  9998
2 44793  55.0151  20.9850 0006932 335.2558 202.7633  1.86232480  1010
UTC
Height (km)
Latitude
Longitude
Inclination
Orbital Period
UTC large
Height (km)
Speed (km/s)
/
Latitude / Longitude
Inclination (degrees)
Orbital Period (minutes)
Azimuth
Elevation
Range (km)
Doppler Factor
iOS Compass Heading
iOS Angle

Next 30 passes for location: Hong Kong

Rise time Rise Azimuth (degrees) Set time Set Azimuth (degrees) Duration Max altitude (degrees)

No matching passes for this satellites